GW0766 Weather Reports


Display with metric or nautical units.
time (UTC)temp
F
wind
direction
speed
MPH
gust
MPH
rain 1hr
in
rain 24hr
in
rain mn
in
humidity
%
barometer
mb
20260503031623 51 296 0.0 0.0 0.00 0.00 0.00 63 996.0
20260503021231 52 229 0.0 0.0 0.00 0.00 0.00 61 996.4
20260503015913 46 132 0.0 0.0 0.00 0.00 0.00 87 1018.3
20260503011125 53 256 0.0 0.0 0.00 0.00 0.00 64 996.8
20260502235927 49 132 0.0 2.0 0.00 0.00 0.00 82 1019.0
20260502231547 53 306 0.0 0.0 0.00 0.00 0.00 65 997.8
20260502215941 56 119 1.0 4.0 0.00 0.00 0.00 70 1019.2
20260502211051 55 297 0.0 2.0 0.00 0.00 0.00 57 998.0
20260502205922 56 124 1.0 3.0 0.00 0.00 0.00 71 1019.4
20260502195916 59 129 1.0 4.0 0.00 0.00 0.00 64 1019.3
20260502191243 58 294 0.0 2.0 0.00 0.00 0.00 66 997.3
20260502181140 59 214 1.0 4.0 0.00 0.00 0.00 63 996.4
20260502161626 63 209 4.0 9.0 0.00 0.00 0.00 57 995.6
20260502151528 64 72 2.0 8.0 0.00 0.00 0.00 58 995.5
20260502121247 65 127 7.0 13.0 0.00 0.00 0.00 57 995.2
20260502111241 67 45 6.0 17.0 0.00 0.00 0.00 43 995.1
20260502105926 71 194 3.0 8.0 0.00 0.00 0.00 35 1019.8
20260502091148 65 91 7.0 19.0 0.00 0.01 0.00 44 994.9
20260502061706 60 5 1.0 4.0 0.00 0.01 0.00 52 995.1
20260502055922 49 301 0.0 3.0 0.00 0.00 0.00 62 1021.3
20260502051146 56 74 2.0 8.0 0.00 0.01 0.00 61 995.2